sat.trackr.live / text

‹ back to catalog

STARLINK-30948

NORAD 58525 · 2023-191T

PAYLOAD ACTIVE UNKNOWN

§ Identity

Operator
Country
US
Launch date
2023-12-07
Launch site
AFETR
Launch vehicle
Mass (kg)
RCS (m²)

Purposes: comms

External: N2YO · Heavens-Above · Gunter

§ Orbital elements

Epoch: 2026-09-19T05:39:00.503136Z

Period
94.27 min
Inclination
43.0030°
Eccentricity
0.0000322
Mean motion
15.27559193 rev/d
Perigee alt
482.9 km
Apogee alt
483.3 km
Semi-major
6,861.2 km
B*
-8.1424e-5
RAAN
90.2179°
Arg perigee
2.5932°
Mean anomaly
357.4922°
Rev number
15,507

§ Raw data

STARLINK-309481 58525U 23191T   26262.23542249 -.00002500  00000+0 -81424-4 0  99912 58525  43.0030  90.2179 0000322   2.5932 357.4922 15.27559193155070

JSON: /api/v1/satellites/58525 · /tle

For live sub-satellite position, see the globe view (requires WebGL).

§ Visibility from observer

Set your observer location to see the next 7 days of passes ≥ 10°. The values pass through the URL so the page stays shareable.

No JS? Fill the form by hand. The geolocation button needs JavaScript.